User: anonymous   Login
Location: Wawayanda State Park
(41.1833°N, 74.4333°W)
Time: 13:24:09
(UTC-04:00)
Language:

RESURS DK-1 - Orbit

View from above orbital plane
View from above orbital plane
View from above satellite
View from above satellite

Ground track
Ground track

The orbit data is extracted from the following two-line orbital elements,

1 29228U 06021A   18111.20202100  .00000150  00000-0  18709-4 0  9996
2 29228  69.9371  34.3262 0007356 245.1191 114.9205 15.02308213654354
Epoch (UTC): 21 April 2018 04:50:54
Eccentricity: 0.0007356
inclination: 69.9371°
perigee height: 554 km
apogee height: 565 km
right ascension of ascending node: 34.3262°
argument of perigee: 245.1191°
revolutions per day: 15.02308213
mean anomaly at epoch: 114.9205°
orbit number at epoch: 65435

The dashed part of the orbit path shows where the satellite is in the earth's shadow,  

DLR